Weather History for Minneapolis Flying Cloud, MN

Change the Weather History Date:

Saturday, March 30, 2013

  Actual Average Record
Temperature  
Mean Temperature 44 °F -  
Max Temperature 53 °F 44 °F 71 °F (1999)
Min Temperature 34 °F 29 °F 19 °F (2011)
Degree Days  
Heating Degree Days 20    
Moisture  
Dew Point 37 °F    
Average Humidity 76    
Maximum Humidity 93    
Minimum Humidity 63    
Precipitation  
Precipitation 0.14 in - - ()
Sea Level Pressure  
Sea Level Pressure 29.90 in    
Wind  
Wind Speed 10 mph (West)    
Max Wind Speed 14 mph    
Max Gust Speed -    
Visibility 7 miles    
Events Rain , Thunderstorm    
Averages and records for this station are not official NWS values.
T = Trace of Precipitation, MM = Missing Value Source: NWS Daily Summary

Daily Weather History Graph

Daily Weather History Graph

Search for Another Location

Airport:

Trip Planner

Search our weather history database for the weather conditions in past years. The results will help you decide how hot, cold, wet, or windy it might be!

Date:

Astronomy

Mar. 30, 2013 Rise Set
Actual Time 6:57 AM CDT 7:39 PM CDT
Civil Twilight 6:28 AM CDT 8:08 PM CDT
Nautical Twilight 5:53 AM CDT 8:44 PM CDT
Astronomical Twilight 5:17 AM CDT 9:20 PM CDT
Moon 11:57 PM CDT (3/30) 8:43 AM CDT (3/30)
Length of Visible Light 13h 40m
Length of Day
12h 41m
Waning Gibbous, 86% of the Moon is Illuminated
Mar 30
Waning Gibbous
Apr 2
Last Quarter
Apr 10
New
Apr 18
First Quarter
Apr 25
Full

Hourly Weather History & Observations

Time (CDT) Temp. Windchill Dew Point Humidity Pressure Visibility Wind Dir Wind Speed Gust Speed Precip Events Conditions
12:53 AM 44.1 °F 38.1 °F 35.1 °F 71% 30.05 in 9.0 mi SSE 11.5 mph - N/A   Overcast
1:53 AM 44.1 °F 37.4 °F 34.0 °F 68% 30.01 in 9.0 mi SSE 13.8 mph - N/A   Overcast
2:53 AM 43.0 °F 37.2 °F 33.1 °F 68% 29.99 in 9.0 mi SSE 10.4 mph - N/A   Overcast
3:53 AM 42.1 °F 36.1 °F 33.1 °F 70% 29.96 in 9.0 mi SSE 10.4 mph - 0.00 in   Overcast
4:38 AM 44.6 °F 38.4 °F 33.8 °F 66% 29.92 in 10.0 mi South 12.7 mph - 0.00 in Thunderstorm Overcast
4:53 AM 44.1 °F 40.8 °F 33.1 °F 65% 29.96 in 7.0 mi West 5.8 mph - 0.01 in Rain , Thunderstorm Light Rain
5:08 AM 42.8 °F - 33.8 °F 70% 29.95 in 5.0 mi North - - 0.02 in Rain Light Rain
5:53 AM 39.9 °F - 36.0 °F 86% 29.94 in 4.0 mi North - - 0.09 in Rain Light Rain
6:53 AM 39.0 °F - 37.0 °F 93% 29.91 in 4.0 mi North - - 0.02 in   Overcast
7:53 AM 41.0 °F - 36.0 °F 82% 29.90 in 5.0 mi North - - 0.01 in Rain Light Rain
8:04 AM 41.0 °F - 37.4 °F 87% 29.88 in 7.0 mi North - - 0.00 in Rain Light Rain
8:53 AM 39.9 °F - 37.0 °F 89% 29.90 in 5.0 mi North - - 0.01 in Rain Light Rain
9:53 AM 39.9 °F - 37.0 °F 89% 29.89 in 5.0 mi North - - 0.00 in   Overcast
10:53 AM 42.1 °F - 39.0 °F 89% 29.89 in 5.0 mi North - - N/A   Overcast
11:02 AM 42.8 °F - 39.2 °F 87% 29.87 in 5.0 mi North - - N/A   Mostly Cloudy
11:49 AM 48.2 °F - 41.0 °F 76% 29.87 in 7.0 mi North - - N/A   Mostly Cloudy
11:53 AM 48.0 °F - 41.0 °F 77% 29.88 in 7.0 mi North - - N/A   Scattered Clouds
12:53 PM 50.0 °F - 42.1 °F 74% 29.88 in 7.0 mi WNW 11.5 mph - N/A   Partly Cloudy
1:53 PM 51.1 °F - 41.0 °F 68% 29.87 in 8.0 mi NW 11.5 mph - N/A   Clear
2:53 PM 52.0 °F - 41.0 °F 66% 29.86 in 9.0 mi NNW 9.2 mph - N/A   Clear
3:53 PM 53.1 °F - 41.0 °F 64% 29.86 in 8.0 mi West 5.8 mph - N/A   Partly Cloudy
4:53 PM 52.0 °F - 39.9 °F 63% 29.86 in 9.0 mi WNW 10.4 mph - N/A   Clear
5:53 PM 50.0 °F - 39.0 °F 66% 29.86 in 9.0 mi West 13.8 mph - N/A   Clear
6:53 PM 46.9 °F - 37.0 °F 68% 29.87 in 8.0 mi West 10.4 mph - N/A   Clear
7:53 PM 41.0 °F 38.0 °F 36.0 °F 82% 29.87 in 5.0 mi West 4.6 mph - N/A   Haze
8:53 PM 39.0 °F 35.7 °F 34.0 °F 82% 29.89 in 6.0 mi West 4.6 mph - N/A   Haze
9:53 PM 37.0 °F 32.4 °F 32.0 °F 82% 29.89 in 6.0 mi West 5.8 mph - N/A   Haze
10:53 PM 36.0 °F 31.1 °F 30.9 °F 82% 29.89 in 6.0 mi West 5.8 mph - N/A   Haze
11:53 PM 34.0 °F 28.8 °F 30.0 °F 85% 29.87 in 5.0 mi West 5.8 mph - N/A   Clear